Time,TemperatureF,DewpointF,PressureIn,WindDirection,WindDirectionDegrees,WindSpeedMPH,WindSpeedGustMPH,Humidity,HourlyPrecipIn,Conditions,Clouds,dailyrainin,SoftwareType,DateUTC
2013-09-27 00:06:00,54.4,45.0,29.85,North,360,5.0,-999.0,71,-99.99,,,0.00,weatherlink.com 1.10,2013-09-27 06:06:00,
2013-09-27 00:21:00,54.3,45.0,29.85,North,360,7.0,-999.0,71,-99.99,,,0.00,weatherlink.com 1.10,2013-09-27 06:21:00,
2013-09-27 00:36:00,54.2,45.0,29.85,North,360,6.0,-999.0,72,-99.99,,,0.00,weatherlink.com 1.10,2013-09-27 06:36:00,
2013-09-27 00:51:00,54.2,45.0,29.85,North,360,5.0,-999.0,72,-99.99,,,0.00,weatherlink.com 1.10,2013-09-27 06:51:00,
2013-09-27 01:06:00,54.2,45.0,29.85,North,360,4.0,-999.0,72,-99.99,,,0.00,weatherlink.com 1.10,2013-09-27 07:06:00,
2013-09-27 01:21:00,53.7,46.0,29.86,North,360,6.0,-999.0,76,-99.99,,,0.00,weatherlink.com 1.10,2013-09-27 07:21:00,
2013-09-27 01:36:00,52.1,45.0,29.86,North,360,0.0,-999.0,77,-99.99,,,0.00,weatherlink.com 1.10,2013-09-27 07:36:00,
2013-09-27 01:51:00,51.2,45.0,29.86,North,360,3.0,-999.0,79,-99.99,,,0.00,weatherlink.com 1.10,2013-09-27 07:51:00,
2013-09-27 02:06:00,51.2,45.0,29.86,North,360,3.0,-999.0,80,-99.99,,,0.00,weatherlink.com 1.10,2013-09-27 08:06:00,
2013-09-27 02:21:00,51.7,45.0,29.86,North,360,2.0,-999.0,79,-99.99,,,0.00,weatherlink.com 1.10,2013-09-27 08:21:00,
2013-09-27 02:36:00,51.8,47.0,29.86,North,360,0.0,-999.0,82,-99.99,,,0.00,weatherlink.com 1.10,2013-09-27 08:36:00,
2013-09-27 02:51:00,52.2,48.0,29.85,North,360,1.0,-999.0,85,-99.99,,,0.00,weatherlink.com 1.10,2013-09-27 08:51:00,
2013-09-27 03:06:00,52.6,49.0,29.85,North,360,0.0,-999.0,86,-99.99,,,0.00,weatherlink.com 1.10,2013-09-27 09:06:00,
2013-09-27 03:21:00,52.9,50.0,29.86,North,360,1.0,-999.0,88,-99.99,,,0.00,weatherlink.com 1.10,2013-09-27 09:21:00,
2013-09-27 03:36:00,52.9,50.0,29.86,North,360,2.0,-999.0,88,-99.99,,,0.00,weatherlink.com 1.10,2013-09-27 09:36:00,
2013-09-27 03:51:00,52.9,50.0,29.86,North,360,3.0,-999.0,88,-99.99,,,0.00,weatherlink.com 1.10,2013-09-27 09:51:00,
2013-09-27 04:06:00,52.9,50.0,29.87,North,360,0.0,-999.0,89,-99.99,,,0.00,weatherlink.com 1.10,2013-09-27 10:06:00,
2013-09-27 04:21:00,52.6,49.0,29.86,North,360,4.0,-999.0,88,-99.99,,,0.00,weatherlink.com 1.10,2013-09-27 10:21:00,
2013-09-27 04:36:00,51.9,49.0,29.86,North,360,6.0,-999.0,88,-99.99,,,0.00,weatherlink.com 1.10,2013-09-27 10:36:00,
2013-09-27 04:51:00,51.3,48.0,29.87,North,360,9.0,-999.0,89,-99.99,,,0.00,weatherlink.com 1.10,2013-09-27 10:51:00,
2013-09-27 05:06:00,50.5,48.0,29.87,North,360,7.0,-999.0,90,-99.99,,,0.00,weatherlink.com 1.10,2013-09-27 11:06:00,
2013-09-27 05:21:00,49.8,47.0,29.86,North,360,6.0,-999.0,91,-99.99,,,0.00,weatherlink.com 1.10,2013-09-27 11:21:00,
2013-09-27 05:36:00,49.6,47.0,29.88,North,360,4.0,-999.0,92,-99.99,,,0.00,weatherlink.com 1.10,2013-09-27 11:36:00,
2013-09-27 05:51:00,48.9,47.0,29.88,North,360,5.0,-999.0,92,-99.99,,,0.00,weatherlink.com 1.10,2013-09-27 11:51:00,
2013-09-27 06:06:00,47.8,46.0,29.89,North,360,6.0,-999.0,93,-99.99,,,0.00,weatherlink.com 1.10,2013-09-27 12:06:00,
2013-09-27 06:21:00,47.2,45.0,29.90,North,360,4.0,-999.0,93,-99.99,,,0.00,weatherlink.com 1.10,2013-09-27 12:21:00,
2013-09-27 06:36:00,46.7,45.0,29.88,North,360,5.0,-999.0,94,-99.99,,,0.01,weatherlink.com 1.10,2013-09-27 12:36:00,
2013-09-27 06:51:00,46.7,45.0,29.90,North,360,1.0,-999.0,95,-99.99,,,0.01,weatherlink.com 1.10,2013-09-27 12:51:00,
2013-09-27 07:06:00,46.7,45.0,29.91,North,360,4.0,-999.0,95,-99.99,,,0.01,weatherlink.com 1.10,2013-09-27 13:06:00,
2013-09-27 07:21:00,46.6,45.0,29.91,North,360,3.0,-999.0,95,-99.99,,,0.01,weatherlink.com 1.10,2013-09-27 13:21:00,
2013-09-27 07:36:00,46.6,45.0,29.91,North,360,6.0,-999.0,95,-99.99,,,0.01,weatherlink.com 1.10,2013-09-27 13:36:00,
2013-09-27 07:51:00,46.6,45.0,29.91,North,360,4.0,-999.0,95,-99.99,,,0.02,weatherlink.com 1.10,2013-09-27 13:51:00,
2013-09-27 08:07:00,46.6,46.0,29.91,North,360,4.0,-999.0,96,-99.99,,,0.02,weatherlink.com 1.10,2013-09-27 14:07:00,
2013-09-27 08:22:00,46.5,46.0,29.91,North,360,2.0,-999.0,96,-99.99,,,0.02,weatherlink.com 1.10,2013-09-27 14:22:00,
2013-09-27 08:36:00,46.5,45.0,29.91,North,360,5.0,-999.0,95,-99.99,,,0.02,weatherlink.com 1.10,2013-09-27 14:36:00,
2013-09-27 08:51:00,46.5,46.0,29.92,North,360,2.0,-999.0,96,-99.99,,,0.02,weatherlink.com 1.10,2013-09-27 14:51:00,
2013-09-27 09:06:00,46.6,46.0,29.92,North,360,0.0,-999.0,96,-99.99,,,0.02,weatherlink.com 1.10,2013-09-27 15:06:00,
2013-09-27 09:21:00,46.8,46.0,29.92,North,360,5.0,-999.0,95,-99.99,,,0.02,weatherlink.com 1.10,2013-09-27 15:21:00,
2013-09-27 09:36:00,46.3,45.0,29.92,North,360,7.0,-999.0,95,-99.99,,,0.02,weatherlink.com 1.10,2013-09-27 15:36:00,
2013-09-27 09:51:00,45.9,45.0,29.92,North,360,10.0,-999.0,96,-99.99,,,0.03,weatherlink.com 1.10,2013-09-27 15:51:00,
2013-09-27 10:06:00,45.8,45.0,29.91,North,360,8.0,-999.0,96,-99.99,,,0.03,weatherlink.com 1.10,2013-09-27 16:06:00,
2013-09-27 10:21:00,45.8,45.0,29.91,North,360,5.0,-999.0,96,-99.99,,,0.03,weatherlink.com 1.10,2013-09-27 16:21:00,
2013-09-27 10:36:00,45.9,45.0,29.91,North,360,7.0,-999.0,96,-99.99,,,0.03,weatherlink.com 1.10,2013-09-27 16:36:00,
2013-09-27 10:51:00,45.6,45.0,29.91,North,360,6.0,-999.0,96,-99.99,,,0.04,weatherlink.com 1.10,2013-09-27 16:51:00,
2013-09-27 11:06:00,45.6,45.0,29.91,North,360,6.0,-999.0,96,-99.99,,,0.05,weatherlink.com 1.10,2013-09-27 17:06:00,
2013-09-27 11:21:00,45.6,45.0,29.91,North,360,5.0,-999.0,96,-99.99,,,0.05,weatherlink.com 1.10,2013-09-27 17:21:00,
2013-09-27 11:36:00,45.6,45.0,29.92,North,360,3.0,-999.0,96,-99.99,,,0.05,weatherlink.com 1.10,2013-09-27 17:36:00,
2013-09-27 11:51:00,45.4,44.0,29.93,North,360,0.0,-999.0,96,-99.99,,,0.05,weatherlink.com 1.10,2013-09-27 17:51:00,
2013-09-27 12:06:00,45.0,44.0,29.93,North,360,9.0,-999.0,95,-99.99,,,0.06,weatherlink.com 1.10,2013-09-27 18:06:00,
2013-09-27 12:21:00,45.0,44.0,29.93,North,360,3.0,-999.0,96,-99.99,,,0.08,weatherlink.com 1.10,2013-09-27 18:21:00,
2013-09-27 12:36:00,44.8,44.0,29.93,North,360,4.0,-999.0,96,-99.99,,,0.10,weatherlink.com 1.10,2013-09-27 18:36:00,
2013-09-27 12:51:00,44.8,44.0,29.93,North,360,5.0,-999.0,96,-99.99,,,0.12,weatherlink.com 1.10,2013-09-27 18:51:00,
2013-09-27 13:06:00,44.9,44.0,29.92,North,360,1.0,-999.0,96,-99.99,,,0.13,weatherlink.com 1.10,2013-09-27 19:06:00,
2013-09-27 13:21:00,45.1,44.0,29.92,North,360,4.0,-999.0,96,-99.99,,,0.14,weatherlink.com 1.10,2013-09-27 19:21:00,
2013-09-27 13:36:00,45.5,45.0,29.92,North,360,4.0,-999.0,96,-99.99,,,0.14,weatherlink.com 1.10,2013-09-27 19:36:00,
2013-09-27 13:51:00,45.4,44.0,29.90,North,360,5.0,-999.0,96,-99.99,,,0.14,weatherlink.com 1.10,2013-09-27 19:51:00,
2013-09-27 14:06:00,45.2,44.0,29.91,North,360,6.0,-999.0,95,-99.99,,,0.14,weatherlink.com 1.10,2013-09-27 20:06:00,
2013-09-27 14:21:00,45.0,44.0,29.90,North,360,4.0,-999.0,95,-99.99,,,0.14,weatherlink.com 1.10,2013-09-27 20:21:00,
2013-09-27 14:36:00,45.0,44.0,29.92,North,360,6.0,-999.0,95,-99.99,,,0.14,weatherlink.com 1.10,2013-09-27 20:36:00,
2013-09-27 14:51:00,44.8,44.0,29.92,North,360,6.0,-999.0,95,-99.99,,,0.14,weatherlink.com 1.10,2013-09-27 20:51:00,
2013-09-27 15:06:00,44.7,44.0,29.91,North,360,2.0,-999.0,96,-99.99,,,0.17,weatherlink.com 1.10,2013-09-27 21:06:00,
2013-09-27 15:21:00,44.6,43.0,29.93,North,360,2.0,-999.0,95,-99.99,,,0.18,weatherlink.com 1.10,2013-09-27 21:21:00,
2013-09-27 15:36:00,44.6,43.0,29.93,North,360,4.0,-999.0,95,-99.99,,,0.19,weatherlink.com 1.10,2013-09-27 21:36:00,
2013-09-27 15:51:00,44.7,44.0,29.94,North,360,5.0,-999.0,96,-99.99,,,0.21,weatherlink.com 1.10,2013-09-27 21:51:00,
2013-09-27 16:06:00,44.7,44.0,29.94,North,360,4.0,-999.0,96,-99.99,,,0.23,weatherlink.com 1.10,2013-09-27 22:06:00,
2013-09-27 16:21:00,44.5,43.0,29.94,North,360,6.0,-999.0,95,-99.99,,,0.25,weatherlink.com 1.10,2013-09-27 22:21:00,
2013-09-27 16:36:00,44.1,43.0,29.94,North,360,5.0,-999.0,95,-99.99,,,0.27,weatherlink.com 1.10,2013-09-27 22:36:00,
2013-09-27 16:51:00,43.5,43.0,29.95,North,360,2.0,-999.0,96,-99.99,,,0.29,weatherlink.com 1.10,2013-09-27 22:51:00,
2013-09-27 17:06:00,43.4,42.0,29.96,North,360,3.0,-999.0,96,-99.99,,,0.31,weatherlink.com 1.10,2013-09-27 23:06:00,
2013-09-27 17:21:00,43.2,42.0,29.96,North,360,3.0,-999.0,96,-99.99,,,0.34,weatherlink.com 1.10,2013-09-27 23:21:00,
2013-09-27 17:36:00,43.1,42.0,29.97,North,360,5.0,-999.0,96,-99.99,,,0.34,weatherlink.com 1.10,2013-09-27 23:36:00,
2013-09-27 17:51:00,42.9,42.0,29.98,North,360,5.0,-999.0,96,-99.99,,,0.35,weatherlink.com 1.10,2013-09-27 23:51:00,
2013-09-27 18:06:00,42.9,42.0,29.98,North,360,2.0,-999.0,96,-99.99,,,0.37,weatherlink.com 1.10,2013-09-28 00:06:00,
2013-09-27 18:21:00,42.8,42.0,29.98,North,360,4.0,-999.0,96,-99.99,,,0.37,weatherlink.com 1.10,2013-09-28 00:21:00,
2013-09-27 18:36:00,42.6,42.0,30.00,North,360,5.0,-999.0,96,-99.99,,,0.37,weatherlink.com 1.10,2013-09-28 00:36:00,
2013-09-27 18:51:00,42.7,42.0,30.00,North,360,5.0,-999.0,96,-99.99,,,0.37,weatherlink.com 1.10,2013-09-28 00:51:00,
2013-09-27 19:06:00,42.7,42.0,30.00,North,360,4.0,-999.0,96,-99.99,,,0.37,weatherlink.com 1.10,2013-09-28 01:06:00,
2013-09-27 19:21:00,42.4,41.0,30.00,North,360,6.0,-999.0,96,-99.99,,,0.37,weatherlink.com 1.10,2013-09-28 01:21:00,
2013-09-27 19:36:00,42.0,41.0,30.01,North,360,9.0,-999.0,96,-99.99,,,0.37,weatherlink.com 1.10,2013-09-28 01:36:00,
2013-09-27 19:51:00,41.9,41.0,30.01,North,360,3.0,-999.0,96,-99.99,,,0.37,weatherlink.com 1.10,2013-09-28 01:51:00,
2013-09-27 20:06:00,41.8,41.0,30.02,North,360,3.0,-999.0,96,-99.99,,,0.37,weatherlink.com 1.10,2013-09-28 02:06:00,
2013-09-27 20:21:00,42.0,41.0,30.02,North,360,2.0,-999.0,96,-99.99,,,0.37,weatherlink.com 1.10,2013-09-28 02:21:00,
2013-09-27 20:36:00,42.3,41.0,30.01,North,360,1.0,-999.0,96,-99.99,,,0.37,weatherlink.com 1.10,2013-09-28 02:36:00,
2013-09-27 20:51:00,42.2,41.0,30.02,North,360,1.0,-999.0,95,-99.99,,,0.37,weatherlink.com 1.10,2013-09-28 02:51:00,
2013-09-27 21:06:00,42.1,41.0,30.02,North,360,4.0,-999.0,95,-99.99,,,0.37,weatherlink.com 1.10,2013-09-28 03:06:00,
2013-09-27 21:21:00,41.5,40.0,30.03,North,360,0.0,-999.0,95,-99.99,,,0.37,weatherlink.com 1.10,2013-09-28 03:21:00,
2013-09-27 21:36:00,41.5,40.0,30.03,North,360,2.0,-999.0,95,-99.99,,,0.37,weatherlink.com 1.10,2013-09-28 03:36:00,
2013-09-27 21:51:00,41.5,41.0,30.04,North,360,0.0,-999.0,96,-99.99,,,0.37,weatherlink.com 1.10,2013-09-28 03:51:00,
2013-09-27 22:06:00,41.1,40.0,30.04,North,360,5.0,-999.0,95,-99.99,,,0.37,weatherlink.com 1.10,2013-09-28 04:06:00,
2013-09-27 22:21:00,40.6,39.0,30.04,North,360,5.0,-999.0,95,-99.99,,,0.38,weatherlink.com 1.10,2013-09-28 04:21:00,
2013-09-27 22:36:00,40.4,39.0,30.05,North,360,3.0,-999.0,95,-99.99,,,0.38,weatherlink.com 1.10,2013-09-28 04:36:00,
2013-09-27 22:51:00,40.5,38.0,30.05,North,360,5.0,-999.0,90,-99.99,,,0.38,weatherlink.com 1.10,2013-09-28 04:51:00,
2013-09-27 23:06:00,40.4,39.0,30.05,North,360,2.0,-999.0,93,-99.99,,,0.38,weatherlink.com 1.10,2013-09-28 05:06:00,
2013-09-27 23:21:00,39.8,38.0,30.05,North,360,2.0,-999.0,94,-99.99,,,0.38,weatherlink.com 1.10,2013-09-28 05:21:00,
2013-09-27 23:36:00,39.4,38.0,30.06,North,360,3.0,-999.0,95,-99.99,,,0.38,weatherlink.com 1.10,2013-09-28 05:36:00,
2013-09-27 23:51:00,39.1,38.0,30.06,North,360,3.0,-999.0,95,-99.99,,,0.38,weatherlink.com 1.10,2013-09-28 05:51:00,